Skip Page Navigation
NASA JPL Caltech
NASA Logo - Jet Propulsion Laboratory + View the NASA Portal
+ Near-Earth Object (NEO) Program
Search JPL
JPL Home Earth Solar System Stars & Galaxies Technology
JPL Solar System Dynamics
BODIES ORBITS EPHEMERIDES TOOLS PHYSICAL DATA DISCOVERY FAQ SITE MAP
JPL Small-Body Database Browser
Search: [ help ]  
74413 (1999 AW8)
Classification: Main-belt Asteroid          SPK-ID: 2074413
Ephemeris | Orbit Diagram | Orbital Elements | Physical Parameters | Discovery Circumstances | Close-Approach Data ]

[ show orbit diagram ]
Orbital Elements at Epoch 2457000.5 (2014-Dec-09.0) TDB
Reference: JPL 11 (heliocentric ecliptic J2000)
 Element Value Uncertainty (1-sigma)   Units 
e .05868132451004341 7.7614e-08  
a 2.989742533483747 4.5878e-08 AU
q 2.814300481674908 2.3378e-07 AU
i 9.277009822322245 7.9033e-06 deg
node 271.5228798800208 5.041e-05 deg
peri 97.48950013794193 8.4961e-05 deg
M 130.0729251834092 6.922e-05 deg
tp 2456318.265750334243
(2013-Jan-25.76575033)
0.00036 JED
period 1888.204863028632
5.17
4.3462e-05
1.19e-07
d
yr
n .1906572782693554 4.3885e-09 deg/d
Q 3.165184585292586 4.857e-08 AU
  Orbit Determination Parameters
   # obs. used (total)      482  
   data-arc span      5934 days (16.25 yr)  
   first obs. used      1998-10-28  
   last obs. used      2015-01-26  
   planetary ephem.      DE431  
   SB-pert. ephem.      SB431-BIG16  
   condition code      0  
   fit RMS      .5472  
   data source      ORB  
   producer      Otto Matic  
   solution date      2015-Feb-04 15:57:38  

Additional Information
 Earth MOID = 1.83337 AU 
 T_jup = 3.234 
[ show covariance matrix ]

Ephemeris | Orbit Diagram | Orbital Elements | Physical Parameters | Discovery Circumstances | Close-Approach Data ]

Physical Parameter Table
Parameter Symbol Value Units Sigma Reference Notes
absolute magnitude H 13.9 mag n/a MPO324953  

74413 (1999 AW8)          Discovered 1999-Jan-06 by BAO Schmidt CCD Asteroid Program at Xinglong (327)
Reference: 20040415/Numbers.arcLast Updated: 2004-04-19

[ show close-approach data ]
Alternate Designations
 1999 AW8 = 2002 PK41 
Ephemeris | Orbit Diagram | Orbital Elements | Physical Parameters | Discovery Circumstances | Close-Approach Data ]
ABOUT SSD CREDITS/AWARDS PRIVACY/COPYRIGHT GLOSSARY LINKS
FirstGov 2015-Mar-01 08:28 UT
(server date/time)  
NASA Home Page
Site Manager:   Ryan S. Park
Webmaster  Alan B. Chamberlin